Location: Franzen
(48.6167°N, 15.3833°E)
Time: 14:02:34
(UTC+00:00)

SJ 16-02 - Pass Details

Date: 22 April 2021
Orbit: 605 x 617 km, 75.0° (Epoch: 16 May)

Event Time Altitude Azimuth Distance (km) Brightness Sun altitude
Exits shadow 23:17:23 20° 73° (ENE) 1,439 3.4 -28.7°
Drops below altitude 10° 23:19:33 10° 47° (NE) 1,987 4.5 -28.6°
Sets 23:22:10 0° 33° (NNE) 2,900 5.8 -28.6°
